Pope Army Airfield, NC

2:56 AM EDT on July 27, 2016 (GMT -0400)
Simmons Army Air Field

Weather History for KFBG - February, 2013

Change the Weather History Date:

Monday, February 4, 2013

  Actual Average Record
Temperature  
Mean Temperature 38 °F -  
Max Temperature 51 °F 53 °F 68 °F (1999)
Min Temperature 26 °F 34 °F 25 °F (2009)
Degree Days  
Heating Degree Days 26    
Moisture  
Dew Point 24 °F    
Average Humidity 57    
Maximum Humidity 94    
Minimum Humidity 30    
Precipitation  
Precipitation 0.00 in - - ()
Sea Level Pressure  
Sea Level Pressure 30.08 in    
Wind  
Wind Speed 2 mph (SSW)    
Max Wind Speed 6 mph    
Max Gust Speed -    
Visibility 10 miles    
Events      
Averages and records for this station are not official NWS values.
T = Trace of Precipitation, MM = Missing Value Source: NWS Daily Summary

Daily Weather History Graph

Daily Weather History Graph

Search for Another Location

Airport or City:

Trip Planner

Search our weather history database for the weather conditions in past years. The results will help you decide how hot, cold, wet, or windy it might be!

Date:

Astronomy

Feb. 04, 2013 Rise Set
Actual Time 7:12 AM EST 5:47 PM EST
Civil Twilight 6:45 AM EST 6:14 PM EST
Nautical Twilight 6:15 AM EST 6:44 PM EST
Astronomical Twilight 5:45 AM EST 7:14 PM EST
Moon 1:43 AM EST (2/4) 12:13 PM EST (2/4)
Length of Visible Light 11h 28m
Length of Day
10h 35m
Last Quarter, 37% of the Moon is Illuminated
Feb 4
Last Quarter
Feb 10
New
Feb 17
First Quarter
Feb 25
Full
Mar 4
Last Quarter

Hourly Weather History & Observations

Time (EST) Temp. Windchill Dew Point Humidity Pressure Visibility Wind Dir Wind Speed Gust Speed Precip Events Conditions
12:55 AM 37.2 °F 33.6 °F 22.3 °F 55% 30.02 in 10.0 mi NW 4.6 mph - N/A   Clear
1:55 AM 33.3 °F - 27.0 °F 78% 30.02 in 10.0 mi Calm Calm - N/A   Clear
2:55 AM 29.8 °F - 27.0 °F 89% 30.04 in 10.0 mi Calm Calm - N/A   Clear
3:55 AM 28.4 °F - 25.5 °F 89% 30.05 in 10.0 mi Calm Calm - N/A   Clear
5:55 AM 27.5 °F - 23.7 °F 86% 30.08 in 10.0 mi Calm Calm - N/A   Clear
6:55 AM 26.6 °F - 24.8 °F 93% 30.10 in 10.0 mi Calm Calm - N/A   Clear
7:55 AM 27.9 °F - 26.2 °F 94% 30.11 in 10.0 mi Calm Calm - N/A   Clear
8:55 AM 33.3 °F - 27.1 °F 78% 30.14 in 10.0 mi Calm Calm - N/A   Clear
9:55 AM 39.0 °F - 24.3 °F 55% 30.16 in 10.0 mi Calm Calm - N/A   Clear
10:55 AM 41.9 °F 39.0 °F 21.0 °F 43% 30.17 in 10.0 mi Variable 4.6 mph - N/A   Scattered Clouds
11:55 AM 45.1 °F 42.0 °F 18.3 °F 34% 30.15 in 10.0 mi West 5.8 mph - N/A   Clear
12:55 PM 47.8 °F - 19.9 °F 33% 30.12 in 10.0 mi Variable 4.6 mph - N/A   Clear
1:55 PM 49.5 °F - 19.2 °F 30% 30.08 in 10.0 mi Calm Calm - N/A   Partly Cloudy
2:55 PM 51.1 °F - 20.1 °F 30% 30.07 in 10.0 mi Calm Calm - N/A   Clear
3:55 PM 49.8 °F - 20.5 °F 32% 30.06 in 10.0 mi South 4.6 mph - N/A   Clear
5:55 PM 48.0 °F - 22.3 °F 36% 30.06 in 10.0 mi SSW 3.5 mph - N/A   Mostly Cloudy
6:55 PM 47.1 °F - 23.9 °F 40% 30.06 in 10.0 mi South 4.6 mph - N/A   Clear
7:55 PM 46.0 °F 43.9 °F 25.0 °F 44% 30.06 in 10.0 mi South 4.6 mph - N/A   Mostly Cloudy
8:55 PM 45.1 °F - 25.7 °F 47% 30.05 in 10.0 mi Calm Calm - N/A   Mostly Cloudy
9:55 PM 44.1 °F 41.5 °F 26.8 °F 51% 30.06 in 10.0 mi South 4.6 mph - N/A   Overcast
10:55 PM 42.4 °F 38.8 °F 28.4 °F 58% 30.05 in 10.0 mi SSW 5.8 mph - N/A   Scattered Clouds
11:55 PM 41.7 °F 38.8 °F 29.7 °F 62% 30.04 in 10.0 mi Variable 4.6 mph - N/A   Mostly Cloudy